When you browse on this site, cookies collect data to enhance your experience and personalize the content and advertising you see.
Visit our Privacy Policy to learn more. By continuing to use the site, you agree to this use of cookies and data.
  • En España
  • Lista de países
  • Para 7 días
  • Temperatura del agua
  • Mapa Satelital
  • El tiempo en el mapa
  • Informadores
  • user-avatar
    Iniciar sesión

    Tiempo cada hora Kruhlyk

    Hoy, 19 Mayo, Domingo

    Tiempo Temperatura Precipitaciones Viento Presión Humedad
    00:00 +15°C° 0 mm 4 mps 735 mmHg 66%
    01:00 +15°C° 0 mm 4 mps 735 mmHg 65%
    02:00 +14°C° 0 mm 4 mps 735 mmHg 64%
    03:00 +14°C° 0 mm 4 mps 735 mmHg 62%
    04:00 +13°C° 0 mm 4 mps 735 mmHg 65%
    05:00 +13°C° 0 mm 4 mps 735 mmHg 67%
    06:00 +13°C° 0 mm 4 mps 735 mmHg 69%
    07:00 +15°C° 0 mm 5 mps 735 mmHg 65%
    08:00 +17°C° 0 mm 5 mps 736 mmHg 60%
    09:00 +20°C° 0 mm 5 mps 736 mmHg 56%
    10:00 +21°C° 0 mm 5 mps 736 mmHg 53%
    11:00 +22°C° 0 mm 5 mps 736 mmHg 51%
    12:00 +23°C° 0 mm 5 mps 736 mmHg 49%
    13:00 +23°C° 0 mm 5 mps 736 mmHg 48%
    14:00 +25°C° 0 mm 5 mps 736 mmHg 47%
    15:00 +25°C° 0 mm 5 mps 736 mmHg 45%
    16:00 +25°C° 0 mm 4 mps 736 mmHg 48%
    17:00 +23°C° 0 mm 4 mps 737 mmHg 51%
    18:00 +23°C° 0 mm 4 mps 737 mmHg 54%
    19:00 +21°C° 0 mm 3 mps 737 mmHg 57%
    20:00 +19°C° 0 mm 3 mps 737 mmHg 61%
    21:00 +17°C° 0 mm 3 mps 737 mmHg 64%
    22:00 +17°C° 0 mm 3 mps 737 mmHg 67%
    23:00 +16°C° 0 mm 3 mps 738 mmHg 70%

    Mañana, 20 Mayo, Lunes

    Tiempo Temperatura Precipitaciones Viento Presión Humedad
    00:00 +15°C° 0 mm 4 mps 738 mmHg 74%
    01:00 +14°C° 0 mm 4 mps 738 mmHg 73%
    02:00 +14°C° 0 mm 3 mps 738 mmHg 73%
    03:00 +13°C° 0 mm 3 mps 739 mmHg 72%
    04:00 +13°C° 0 mm 3 mps 739 mmHg 73%
    05:00 +13°C° 0 mm 3 mps 739 mmHg 73%
    06:00 +13°C° 0 mm 3 mps 739 mmHg 74%
    07:00 +16°C° 0 mm 3 mps 740 mmHg 68%
    08:00 +18°C° 0 mm 4 mps 740 mmHg 63%
    09:00 +20°C° 0 mm 4 mps 740 mmHg 58%
    10:00 +21°C° 0 mm 4 mps 741 mmHg 55%
    11:00 +22°C° 0 mm 4 mps 741 mmHg 52%
    12:00 +23°C° 0 mm 4 mps 741 mmHg 49%
    13:00 +23°C° 0 mm 4 mps 741 mmHg 48%
    14:00 +23°C° 0 mm 4 mps 741 mmHg 47%
    15:00 +25°C° 0 mm 4 mps 741 mmHg 45%
    16:00 +23°C° 0 mm 4 mps 741 mmHg 48%
    17:00 +23°C° 0 mm 4 mps 740 mmHg 51%
    18:00 +22°C° 0 mm 4 mps 740 mmHg 53%
    19:00 +20°C° 0 mm 3 mps 741 mmHg 57%
    20:00 +18°C° 0 mm 3 mps 741 mmHg 61%
    21:00 +16°C° 0 mm 3 mps 741 mmHg 65%
    22:00 +16°C° 0 mm 3 mps 741 mmHg 67%
    23:00 +14°C° 0 mm 4 mps 741 mmHg 68%

    Pasado mañana, 21 Mayo, Martes

    Tiempo Temperatura Precipitaciones Viento Presión Humedad
    00:00 +13°C° 0 mm 4 mps 742 mmHg 69%
    01:00 +13°C° 0 mm 4 mps 742 mmHg 70%
    02:00 +12°C° 0 mm 4 mps 742 mmHg 71%
    03:00 +11°C° 0 mm 3 mps 742 mmHg 72%
    04:00 +11°C° 0 mm 3 mps 742 mmHg 73%
    05:00 +11°C° 0 mm 3 mps 742 mmHg 74%
    06:00 +11°C° 0 mm 3 mps 742 mmHg 75%
    07:00 +13°C° 0 mm 3 mps 742 mmHg 70%
    08:00 +15°C° 0 mm 4 mps 742 mmHg 65%
    09:00 +18°C° 0 mm 4 mps 742 mmHg 60%
    10:00 +19°C° 0 mm 4 mps 742 mmHg 57%
    11:00 +21°C° 0 mm 5 mps 742 mmHg 53%
    12:00 +22°C° 0 mm 5 mps 742 mmHg 50%
    13:00 +22°C° 0 mm 4 mps 742 mmHg 49%
    14:00 +23°C° 0 mm 4 mps 742 mmHg 47%
    15:00 +23°C° 0 mm 4 mps 742 mmHg 46%
    16:00 +23°C° 0 mm 4 mps 741 mmHg 49%
    17:00 +23°C° 0 mm 4 mps 741 mmHg 52%
    18:00 +22°C° 0 mm 3 mps 740 mmHg 54%
    19:00 +20°C° 0 mm 3 mps 740 mmHg 59%
    20:00 +19°C° 0 mm 3 mps 740 mmHg 63%
    21:00 +17°C° 0 mm 3 mps 740 mmHg 68%
    22:00 +16°C° 0 mm 3 mps 740 mmHg 69%
    23:00 +16°C° 0 mm 3 mps 740 mmHg 70%

    22 Mayo, Miércoles

    Tiempo Temperatura Precipitaciones Viento Presión Humedad
    00:00 +14°C° 0 mm 3 mps 740 mmHg 71%
    01:00 +13°C° 0 mm 3 mps 739 mmHg 70%
    02:00 +13°C° 0 mm 3 mps 739 mmHg 70%
    03:00 +13°C° 0 mm 3 mps 739 mmHg 70%
    04:00 +13°C° 0 mm 3 mps 739 mmHg 69%
    05:00 +13°C° 0 mm 3 mps 738 mmHg 68%
    06:00 +13°C° 0 mm 3 mps 738 mmHg 67%
    07:00 +14°C° 0 mm 4 mps 738 mmHg 62%
    08:00 +16°C° 0 mm 5 mps 738 mmHg 56%
    09:00 +19°C° 0 mm 6 mps 738 mmHg 51%
    10:00 +19°C° 0 mm 6 mps 738 mmHg 51%
    11:00 +20°C° 0 mm 6 mps 738 mmHg 51%
    12:00 +20°C° 0 mm 6 mps 738 mmHg 50%
    13:00 +20°C° 0 mm 6 mps 738 mmHg 55%
    14:00 +19°C° 0 mm 5 mps 737 mmHg 59%
    15:00 +19°C° 0 mm 5 mps 737 mmHg 64%
    16:00 +19°C° 0.1 mm 5 mps 737 mmHg 67%
    17:00 +19°C° 0.1 mm 4 mps 736 mmHg 71%
    18:00 +18°C° 0.1 mm 4 mps 736 mmHg 75%
    19:00 +17°C° 0 mm 4 mps 736 mmHg 81%
    20:00 +16°C° 0 mm 3 mps 735 mmHg 86%
    21:00 +14°C° 0 mm 3 mps 735 mmHg 92%
    22:00 +14°C° 0 mm 3 mps 735 mmHg 93%
    23:00 +14°C° 0 mm 3 mps 735 mmHg 94%

    23 Mayo, Jueves

    Tiempo Temperatura Precipitaciones Viento Presión Humedad
    00:00 +14°C° 0 mm 3 mps 734 mmHg 95%
    01:00 +13°C° 0 mm 3 mps 734 mmHg 95%
    02:00 +13°C° 0 mm 4 mps 734 mmHg 95%
    03:00 +13°C° 0 mm 4 mps 734 mmHg 96%
    04:00 +13°C° 0.1 mm 4 mps 734 mmHg 95%
    05:00 +13°C° 0.1 mm 4 mps 734 mmHg 95%
    06:00 +14°C° 0.1 mm 4 mps 733 mmHg 95%
    07:00 +15°C° 0 mm 4 mps 733 mmHg 85%
    08:00 +17°C° 0 mm 5 mps 733 mmHg 75%
    09:00 +19°C° 0 mm 5 mps 733 mmHg 65%
    10:00 +20°C° 0.3 mm 6 mps 733 mmHg 62%
    11:00 +22°C° 0.3 mm 6 mps 733 mmHg 59%
    12:00 +23°C° 0.3 mm 7 mps 733 mmHg 56%
    13:00 +23°C° 0.6 mm 7 mps 733 mmHg 55%
    14:00 +23°C° 0.6 mm 7 mps 733 mmHg 54%
    15:00 +23°C° 0.6 mm 6 mps 733 mmHg 52%
    16:00 +22°C° 0.7 mm 6 mps 732 mmHg 56%
    17:00 +21°C° 0.7 mm 6 mps 732 mmHg 61%
    18:00 +21°C° 0.7 mm 6 mps 732 mmHg 65%
    19:00 +19°C° 0.8 mm 5 mps 732 mmHg 70%
    20:00 +18°C° 0.8 mm 4 mps 732 mmHg 74%
    21:00 +17°C° 0.8 mm 4 mps 732 mmHg 79%
    22:00 +17°C° 0.1 mm 4 mps 732 mmHg 82%
    23:00 +15°C° 0.1 mm 4 mps 732 mmHg 84%

    24 Mayo, Viernes

    Tiempo Temperatura Precipitaciones Viento Presión Humedad
    00:00 +15°C° 0.1 mm 4 mps 731 mmHg 87%
    01:00 +14°C° 0.1 mm 4 mps 731 mmHg 87%
    02:00 +14°C° 0.1 mm 4 mps 731 mmHg 88%
    03:00 +13°C° 0.1 mm 4 mps 731 mmHg 89%
    04:00 +14°C° 0 mm 4 mps 731 mmHg 89%
    05:00 +14°C° 0 mm 4 mps 731 mmHg 89%
    06:00 +14°C° 0 mm 4 mps 731 mmHg 90%
    07:00 +17°C° 0 mm 4 mps 731 mmHg 84%
    08:00 +17°C° 0 mm 5 mps 731 mmHg 78%
    09:00 +20°C° 0 mm 5 mps 732 mmHg 72%
    10:00 +21°C° 0.2 mm 6 mps 732 mmHg 67%
    11:00 +22°C° 0.2 mm 6 mps 732 mmHg 63%
    12:00 +23°C° 0.2 mm 6 mps 732 mmHg 59%
    13:00 +23°C° 0.3 mm 6 mps 732 mmHg 57%
    14:00 +24°C° 0.3 mm 6 mps 732 mmHg 56%
    15:00 +24°C° 0.3 mm 6 mps 732 mmHg 55%
    16:00 +23°C° 0.3 mm 5 mps 732 mmHg 58%
    17:00 +23°C° 0.3 mm 5 mps 732 mmHg 61%
    18:00 +22°C° 0.3 mm 4 mps 732 mmHg 65%
    19:00 +21°C° 0.1 mm 4 mps 732 mmHg 70%
    20:00 +20°C° 0.1 mm 3 mps 732 mmHg 74%
    21:00 +18°C° 0.1 mm 3 mps 732 mmHg 79%
    22:00 +18°C° 0 mm 3 mps 732 mmHg 81%
    23:00 +17°C° 0 mm 3 mps 732 mmHg 84%
    Mostrar más